Temperature
10 11 11 11 11 11 11 10 10 10 10 10 9 9 10 10 11 12 12 12 13 14 15 15 16 17 17 17 17 17 17 17 17 17 17 17 17 17 17 17 17 16 16 16
10 11 11 10 10 10 10 10 10 10 10 9 9 9 10 10 10 11 11 12 13 13 14 14 15 16 16 16 16 16 16 16 16 16 16 16 16 16 16 16 16 16 16 16
9 10 11 9 9 9 10 9 9 9 9 9 9 9 10 10 10 11 12 12 13 13 13 13 13 14 14 14 15 15 15 15 15 15 16 16 16 16 16 16 16 15 15 15
8 9 9 9 10 10 10 10 9 9 9 9 9 10 11 11 11 12 12 12 13 13 13 12 12 13 13 13 13 14 14 14 14 14 14 14 14 14 14 14 14 14 14 14
7 8 9 10 10 9 9 10 10 9 10 10 10 12 12 12 12 12 13 13 13 13 13 13 12 12 13 13 12 12 12 12 12 12 13 13 13 13 13 13 13 13 13 13
7 9 9 9 10 10 9 10 10 9 9 9 9 10 11 12 13 13 13 13 13 13 13 13 13 12 13 12 12 12 12 12 11 11 11 11 11 11 11 12 12 12 12 12
7 8 8 9 10 9 9 10 10 9 9 9 9 9 11 12 13 14 14 14 14 14 14 13 13 13 13 12 12 12 12 11 11 11 11 11 11 11 11 11 11 11 11 11
6 8 9 11 9 9 9 10 10 10 10 10 11 12 13 14 14 15 14 14 14 14 14 14 14 14 13 13 12 12 12 12 11 11 11 11 11 11 11 11 11 11 11 11
7 8 10 11 11 11 11 10 11 11 11 11 12 13 13 14 14 15 15 15 15 15 15 14 14 14 14 13 13 12 12 12 11 11 11 11 11 11 11 11 11 11 11 11
8 8 10 11 11 11 11 11 11 11 11 11 12 13 13 14 14 15 15 15 15 15 15 15 15 15 14 14 13 13 12 12 11 11 11 11 11 11 11 11 10 10 10 10
7 9 10 11 12 12 11 11 11 11 11 11 12 12 13 13 14 14 15 15 15 15 16 16 15 15 15 14 14 13 13 12 11 11 11 11 11 11 10 10 10 10 10 10
8 10 10 12 12 12 12 12 11 11 11 11 11 12 12 13 13 14 15 15 15 16 16 16 16 16 15 15 14 14 13 12 12 11 11 11 11 11 10 10 10 10 10 10
13 13 12 13 12 12 12 12 12 11 11 11 11 11 12 12 13 14 14 15 16 16 16 16 16 16 15 15 15 14 13 12 12 11 11 11 11 10 10 10 9 9 9 10
13 13 12 12 12 12 12 12 12 11 11 11 11 11 12 12 13 14 15 15 16 16 16 16 16 16 16 16 15 15 13 12 12 11 11 11 11 10 10 10 9 9 9 9
13 13 13 12 12 12 12 12 12 12 12 12 12 12 12 12 13 14 14 15 16 16 16 16 16 16 16 16 16 15 14 13 12 11 11 11 11 10 10 10 9 9 9 9
13 12 12 12 12 12 12 12 12 12 12 12 12 12 12 12 12 13 14 14 15 16 16 16 16 16 16 16 16 15 14 13 12 12 11 11 11 10 10 10 10 9 9 9
12 12 12 12 12 12 12 12 11 11 11 11 12 12 12 12 13 13 14 14 14 15 15 16 16 16 16 16 16 15 14 13 12 11 11 11 11 10 10 10 10 10 9 9
14 14 14 13 13 12 12 11 11 11 11 11 11 11 12 12 13 13 13 14 14 15 15 16 16 16 16 16 16 15 14 13 12 11 11 11 11 11 10 10 10 9 9 9
13 13 13 13 12 12 12 11 11 11 11 11 11 11 11 12 12 12 13 13 14 15 16 16 16 16 16 16 15 14 14 13 12 11 11 11 11 11 10 10 10 9 9 8
13 13 13 13 12 12 11 11 11 11 11 11 11 11 11 11 12 13 13 13 13 14 15 15 15 15 15 15 15 14 13 13 12 11 11 11 11 11 10 10 10 9 9 8
14 13 13 12 12 12 11 11 11 10 10 10 10 10 11 11 12 12 13 13 13 14 14 15 15 15 15 15 15 14 13 12 12 11 11 11 11 11 10 10 10 9 9 8
14 14 13 12 12 12 11 11 11 10 10 10 10 10 11 11 12 12 12 12 13 13 14 15 15 15 15 15 15 14 13 12 12 11 11 11 11 11 10 10 10 9 9 8
14 14 13 13 12 12 11 11 11 10 10 10 10 10 11 11 11 11 12 12 12 13 13 14 14 15 15 15 14 14 13 12 12 11 11 11 11 11 10 10 9 9 8 8
15 14 13 13 12 12 11 11 11 11 11 11 11 11 11 11 11 11 11 11 11 12 13 13 13 14 15 15 14 14 13 12 12 11 11 11 11 11 10 10 9 9 8 8
15 14 13 13 12 12 12 11 11 11 11 11 11 11 11 11 11 11 11 11 11 11 12 12 12 13 14 14 14 14 13 12 12 12 11 11 11 11 10 10 9 9 8 8
14 14 13 13 13 12 12 12 11 11 11 11 11 11 11 11 11 11 11 11 10 11 11 11 11 12 13 14 14 14 13 13 12 12 11 11 11 10 10 10 9 9 9 8
14 14 13 13 13 12 12 12 11 11 11 11 11 11 11 11 11 11 11 11 11 11 11 11 11 11 12 13 13 13 13 13 12 12 11 11 11 10 10 9 9 9 9 8
Wind_Speed
4 2 7 14 17 16 14 10 7 9 8 12 18 16 15 16 15 14 15 15 14 11 9 8 8 7 5 3 2 1 1 2 2 1 1 2 2 2 2 3 4 5 5 5
1 1 7 10 18 15 11 10 10 10 8 15 16 13 15 17 17 16 15 14 13 13 12 12 12 11 11 10 8 7 7 7 6 5 4 3 3 3 2 2 2 3 5 5
1 4 2 8 12 11 6 8 9 8 10 16 13 15 13 15 17 15 13 11 12 11 10 10 10 10 10 9 9 10 10 9 9 8 8 7 6 6 6 4 3 3 3 3
2 5 5 3 3 6 5 4 8 10 12 14 14 11 5 9 13 14 12 10 10 9 9 8 8 8 8 8 9 9 9 9 9 9 9 8 8 8 8 6 6 6 6 5
4 3 1 4 3 4 3 3 6 10 13 15 15 6 5 11 14 11 8 6 6 6 6 7 8 7 8 8 8 8 8 8 8 8 8 8 9 8 7 7 7 7 6 7
4 4 2 5 4 1 1 3 4 7 10 12 11 8 8 14 14 11 8 5 5 5 6 6 7 6 7 7 7 7 7 7 7 7 7 8 8 7 6 6 7 7 8 8
3 3 5 6 4 1 3 3 7 6 7 6 5 4 10 14 10 7 6 4 3 4 4 5 5 5 6 6 6 5 5 5 6 6 6 6 6 6 6 7 7 8 7 7
3 2 5 4 3 4 5 4 4 5 5 6 7 9 9 9 9 8 6 5 4 3 5 5 4 3 5 5 5 3 3 5 5 6 6 5 6 6 7 7 8 8 8 8
6 5 5 4 5 4 4 4 5 4 6 6 6 7 8 8 9 8 7 6 4 3 5 5 4 2 3 4 3 2 2 3 4 5 5 5 5 6 5 6 6 6 7 7
2 5 5 4 4 4 4 6 6 7 7 5 5 7 8 8 8 8 8 6 5 5 5 6 5 4 4 4 2 1 2 3 3 4 4 4 4 4 4 5 5 6 6 7
4 5 3 5 6 5 4 4 4 4 4 5 5 6 6 7 8 8 7 6 5 5 6 7 7 6 5 3 2 2 2 2 3 3 4 3 3 3 3 2 3 4 4 5
7 9 8 8 7 5 4 2 2 3 5 5 5 6 7 7 7 7 8 7 7 7 7 8 7 7 6 4 4 4 3 2 1 2 3 3 2 2 1 1 4 5 6 6
7 7 7 5 5 4 4 3 2 1 3 5 6 5 6 6 7 8 8 8 9 9 9 8 8 7 6 4 5 5 4 2 0 1 2 2 2 3 3 4 4 5 7 10
7 8 5 5 5 5 4 1 0 2 3 4 5 6 6 7 7 9 9 10 10 9 8 7 7 7 6 4 5 5 4 3 3 1 1 1 2 3 3 3 4 4 6 9
9 8 8 7 7 5 4 2 1 2 5 5 5 6 7 7 8 9 9 10 9 8 8 9 8 8 8 4 5 5 5 3 3 2 1 2 2 3 3 4 4 4 4 6
10 6 8 8 9 7 5 4 2 3 4 4 5 6 7 7 8 8 8 9 8 9 9 10 10 11 9 4 4 4 4 6 5 3 2 2 2 3 3 4 4 5 5 5
13 10 10 9 9 8 7 6 5 4 4 5 5 6 6 6 7 8 9 9 8 7 7 8 11 13 10 3 4 4 4 5 6 4 3 3 2 2 2 3 4 4 4 5
15 15 12 12 10 9 8 7 6 5 4 5 5 4 5 6 7 8 9 9 9 9 7 9 11 13 10 3 3 4 4 4 4 3 3 2 3 3 3 3 3 4 3 4
11 11 11 11 10 9 8 7 6 4 5 4 4 4 4 5 5 7 8 8 9 10 11 13 17 12 10 6 1 4 5 5 4 3 3 3 4 3 3 3 3 3 3 3
11 10 11 10 9 8 7 6 6 4 4 3 3 4 5 6 6 7 7 6 6 6 9 11 10 8 8 7 2 2 4 5 5 4 3 3 3 3 3 3 3 3 2 2
12 11 11 10 9 8 7 7 5 5 4 3 3 4 5 6 6 6 5 6 7 8 10 13 8 7 6 7 3 2 3 4 5 5 4 4 4 4 3 3 3 3 2 2
11 12 12 11 9 8 6 6 6 5 4 4 4 4 4 6 6 6 6 5 7 12 10 7 7 8 11 9 2 3 4 4 4 4 4 5 5 4 4 4 3 3 2 2
10 11 11 11 10 8 6 6 6 6 6 6 6 5 5 5 4 4 6 6 7 12 10 7 11 15 15 5 3 4 5 5 5 4 5 5 5 5 4 4 4 3 3 3
10 11 11 9 8 7 7 7 7 6 6 6 6 6 5 4 5 5 6 10 13 13 8 11 16 15 11 2 4 4 5 5 5 4 4 4 5 5 5 5 4 4 4 4
10 10 9 9 8 8 9 7 6 5 6 5 6 7 5 5 5 6 6 8 12 12 8 11 15 14 6 3 4 5 5 5 5 5 5 4 5 5 5 5 5 5 4 4
9 10 10 11 10 8 7 6 5 5 5 5 5 5 5 5 5 6 6 7 9 11 9 7 8 8 5 4 4 5 5 5 5 5 6 5 5 6 6 6 6 5 5 5
6 6 6 6 6 6 6 6 6 7 7 7 6 6 5 5 4 5 6 6 6 7 7 7 6 6 5 4 4 4 5 5 5 5 5 6 5 5 6 7 6 5 5 5
Wind_Direction
127 104 44 34 22 26 36 29 20 356 353 354 346 345 353 359 3 17 25 29 32 32 29 26 25 27 38 48 44 55 75 29 352 344 342 296 280 280 263 243 234 225 228 229
180 254 36 30 16 14 21 17 5 1 6 344 341 351 2 6 9 15 17 18 22 25 26 28 31 34 40 44 44 53 53 39 25 23 24 6 343 343 335 311 280 241 237 236
332 312 26 19 359 355 5 26 5 358 342 335 345 348 354 3 6 7 5 8 12 16 19 21 23 29 35 32 38 49 50 42 37 35 35 27 26 30 21 10 3 342 313 283
66 51 53 289 302 343 351 33 13 352 345 348 341 322 323 9 4 355 354 359 4 6 11 12 17 25 31 32 36 42 41 36 31 32 32 27 31 30 21 18 20 14 6 353
97 92 332 312 338 1 345 334 1 351 349 352 340 336 5 1 355 342 338 344 351 357 2 7 12 13 31 29 28 32 30 27 24 27 31 29 28 22 17 22 25 22 19 18
108 116 209 256 273 295 198 323 337 343 343 348 360 23 341 332 333 328 333 341 354 354 0 5 355 3 31 23 23 19 12 15 19 26 32 29 23 19 16 22 23 24 27 23
114 149 244 244 271 127 133 268 304 311 315 331 343 274 285 305 315 318 319 326 356 4 348 331 336 6 21 13 6 351 4 21 24 24 32 32 32 27 24 27 29 25 20 17
138 159 244 237 156 163 209 243 272 280 289 302 297 293 301 316 331 338 336 330 345 347 329 319 329 2 4 346 328 345 20 31 25 21 25 29 35 32 31 31 32 23 14 11
188 213 241 221 212 226 209 248 269 272 291 300 300 310 321 327 335 337 333 325 328 331 322 322 321 310 318 309 316 338 12 18 13 16 21 22 31 30 31 32 31 20 13 8
220 262 257 249 251 262 242 244 268 280 289 294 300 310 322 329 335 338 334 328 325 329 322 314 312 296 267 282 280 268 312 336 356 8 7 13 24 28 35 31 25 17 10 4
218 248 258 262 244 248 267 271 295 320 313 316 325 328 324 324 326 329 328 324 328 318 300 292 296 291 276 256 203 223 270 312 346 358 355 357 18 25 22 23 7 357 353 352
206 202 183 216 226 224 221 231 296 336 342 340 337 326 326 320 316 320 322 323 327 322 304 293 289 282 276 242 201 205 241 280 340 354 351 360 10 14 358 313 329 340 344 347
190 172 176 193 201 207 202 217 246 292 326 326 329 327 329 321 315 322 324 328 325 316 306 299 291 282 278 246 204 200 215 227 161 24 13 10 28 36 14 351 343 346 353 360
157 133 152 184 194 200 197 197 337 352 344 333 326 329 331 327 325 331 332 326 319 316 318 319 313 305 299 262 210 198 196 189 154 117 68 49 58 55 41 26 7 351 352 9
180 169 168 173 177 179 176 164 114 340 333 334 331 331 332 332 329 329 329 331 330 337 344 347 343 332 325 290 209 189 175 164 149 137 119 109 88 67 54 47 39 13 1 3
176 163 153 159 174 179 173 176 198 276 300 307 316 321 323 321 321 327 337 348 350 344 343 344 340 328 321 297 199 176 173 168 150 136 122 119 101 81 63 52 46 39 32 13
161 176 180 183 189 190 190 193 208 241 272 286 298 310 324 333 339 344 344 343 336 324 325 337 334 331 325 288 181 165 156 152 141 123 131 143 135 116 93 71 61 58 45 40
184 187 184 184 183 189 197 202 214 235 255 276 296 319 341 344 338 332 331 335 339 340 343 345 342 343 341 336 159 150 145 138 133 136 137 138 138 135 122 97 82 80 62 48
186 180 179 182 183 183 190 202 215 234 265 280 289 311 319 323 323 322 328 341 347 343 337 337 340 348 345 340 126 141 145 141 137 138 138 135 128 132 135 125 112 101 91 68
184 177 176 181 181 182 193 205 211 231 253 260 276 305 321 324 325 328 332 326 306 293 306 320 329 334 338 337 328 162 161 158 154 151 145 141 145 154 157 151 145 136 124 111
180 175 175 179 187 195 199 197 198 224 247 249 257 278 294 306 318 327 330 318 305 312 317 322 327 320 323 324 303 198 176 167 164 164 160 158 159 165 171 170 164 161 157 152
180 178 180 180 184 196 204 195 198 218 241 250 255 265 289 305 316 318 299 273 289 314 319 309 309 311 322 318 253 198 183 174 171 169 167 166 170 177 182 180 176 171 165 160
182 182 180 182 188 196 194 193 202 211 228 236 241 248 259 272 280 292 301 296 303 313 317 301 309 315 317 304 210 189 180 178 181 186 185 181 181 183 184 180 174 168 165 161
181 183 186 183 172 177 201 216 210 212 221 234 239 238 237 264 285 266 257 298 313 314 310 307 315 320 317 251 195 183 181 183 187 192 195 191 186 181 178 171 169 173 173 164
184 182 176 170 180 201 214 214 207 214 222 236 250 249 234 219 236 273 293 299 309 314 310 317 325 326 315 242 198 187 185 189 188 185 192 194 190 183 177 172 172 174 174 169
186 191 193 195 199 201 199 195 204 215 213 231 251 250 243 237 243 262 280 292 301 310 312 310 315 318 304 265 219 198 190 192 193 190 191 193 191 183 176 174 174 175 176 172
196 198 196 205 213 203 194 194 207 220 215 215 233 242 237 241 250 268 285 294 304 308 309 310 311 309 299 274 245 216 196 190 192 192 189 187 186 188 184 178 174 172 168 165
Height
1559 1556 1553 1552 1548 1543 1542 1543 1543 1541 1537 1536 1532 1527 1522 1517 1511 1505 1501 1498 1497 1496 1494 1493 1492 1491 1490 1491 1492 1493 1494 1495 1496 1496 1497 1498 1498 1498 1498 1498 1498 1498 1498 1498
1560 1556 1555 1556 1554 1551 1549 1548 1546 1542 1541 1539 1534 1529 1524 1519 1515 1510 1507 1505 1502 1500 1498 1496 1495 1493 1493 1493 1493 1493 1494 1494 1494 1494 1494 1494 1495 1495 1495 1494 1494 1494 1495 1495
1566 1559 1559 1566 1562 1559 1556 1556 1554 1550 1550 1542 1535 1531 1528 1524 1519 1517 1514 1511 1508 1506 1504 1502 1500 1499 1497 1496 1495 1494 1493 1493 1492 1492 1492 1491 1491 1491 1491 1491 1491 1491 1491 1491
1568 1565 1572 1571 1562 1560 1558 1557 1556 1553 1549 1544 1539 1534 1531 1528 1524 1522 1519 1517 1515 1512 1510 1508 1506 1504 1502 1500 1498 1496 1495 1493 1492 1491 1491 1491 1490 1489 1489 1488 1487 1487 1487 1487
1571 1572 1570 1566 1562 1561 1561 1558 1556 1554 1549 1545 1539 1534 1532 1530 1528 1526 1524 1522 1520 1518 1515 1513 1511 1509 1507 1504 1501 1499 1497 1496 1494 1493 1492 1491 1490 1489 1488 1487 1486 1485 1485 1485
1569 1569 1572 1567 1560 1559 1562 1559 1555 1553 1550 1546 1542 1540 1539 1533 1531 1529 1528 1527 1525 1523 1520 1518 1515 1513 1511 1508 1505 1503 1501 1499 1498 1496 1495 1493 1492 1491 1489 1488 1487 1486 1485 1484
1569 1569 1567 1560 1557 1559 1564 1562 1554 1552 1550 1547 1545 1545 1540 1535 1533 1531 1530 1529 1528 1526 1524 1521 1519 1517 1514 1512 1510 1507 1505 1503 1501 1499 1498 1496 1495 1493 1492 1491 1489 1487 1486 1484
1571 1568 1568 1555 1556 1558 1558 1554 1552 1551 1549 1547 1545 1542 1539 1536 1534 1532 1531 1530 1529 1528 1526 1524 1522 1519 1517 1515 1513 1511 1509 1507 1505 1503 1501 1500 1498 1496 1494 1492 1491 1489 1487 1485
1564 1563 1555 1554 1554 1554 1553 1552 1551 1549 1548 1546 1544 1542 1539 1537 1535 1533 1532 1531 1529 1528 1527 1525 1524 1522 1520 1518 1515 1514 1512 1510 1508 1506 1504 1502 1500 1498 1496 1494 1492 1489 1487 1486
1557 1555 1553 1553 1553 1552 1552 1551 1550 1549 1547 1546 1544 1542 1540 1538 1535 1533 1532 1530 1529 1528 1527 1526 1525 1523 1521 1519 1517 1515 1513 1511 1510 1508 1506 1504 1502 1500 1497 1495 1493 1491 1489 1487
1555 1552 1551 1551 1551 1551 1551 1550 1550 1549 1547 1546 1544 1542 1540 1538 1536 1534 1532 1530 1529 1528 1526 1525 1524 1523 1522 1520 1517 1516 1514 1512 1510 1509 1507 1505 1502 1500 1498 1496 1494 1493 1491 1489
1548 1544 1546 1547 1549 1550 1550 1550 1550 1549 1547 1546 1544 1542 1539 1537 1535 1533 1531 1530 1528 1527 1525 1524 1523 1522 1521 1519 1517 1516 1514 1512 1511 1509 1507 1505 1503 1501 1499 1497 1496 1494 1493 1491
1537 1539 1542 1544 1547 1548 1549 1549 1549 1548 1547 1546 1544 1541 1539 1536 1534 1533 1531 1529 1527 1525 1524 1523 1522 1521 1520 1518 1517 1515 1514 1512 1511 1509 1508 1506 1504 1502 1500 1499 1497 1496 1495 1494
1536 1538 1540 1542 1544 1546 1548 1548 1548 1547 1546 1545 1543 1541 1539 1536 1534 1532 1530 1528 1527 1525 1523 1521 1520 1520 1519 1517 1516 1514 1513 1512 1511 1510 1509 1507 1505 1503 1501 1499 1498 1497 1497 1495
1533 1536 1538 1540 1543 1545 1546 1547 1547 1546 1546 1544 1543 1541 1538 1536 1533 1531 1529 1527 1526 1524 1522 1520 1519 1518 1517 1516 1515 1513 1512 1511 1511 1510 1509 1508 1507 1505 1503 1501 1499 1499 1498 1497
1530 1534 1536 1538 1540 1542 1544 1545 1545 1545 1544 1543 1542 1540 1538 1536 1533 1530 1528 1526 1525 1523 1521 1519 1518 1516 1515 1515 1514 1512 1511 1511 1511 1510 1510 1509 1508 1507 1505 1503 1502 1501 1500 1500
1525 1529 1532 1535 1537 1539 1541 1543 1543 1543 1543 1542 1541 1539 1537 1535 1532 1530 1527 1526 1524 1522 1520 1518 1516 1515 1514 1513 1512 1511 1510 1510 1510 1510 1510 1510 1509 1508 1507 1506 1505 1504 1503 1502
1521 1525 1529 1532 1534 1537 1539 1540 1541 1541 1541 1540 1539 1538 1536 1533 1531 1528 1526 1524 1523 1522 1520 1518 1516 1514 1512 1512 1511 1510 1510 1510 1510 1510 1510 1510 1510 1509 1509 1508 1507 1506 1505 1504
1519 1523 1527 1530 1533 1535 1536 1537 1538 1538 1538 1538 1538 1536 1534 1532 1530 1528 1525 1523 1521 1519 1518 1517 1515 1513 1512 1511 1510 1510 1509 1509 1509 1509 1510 1510 1510 1510 1509 1509 1508 1508 1507 1506
1516 1521 1525 1528 1531 1533 1534 1535 1535 1536 1536 1536 1536 1534 1532 1530 1528 1526 1524 1522 1520 1518 1516 1515 1513 1512 1511 1510 1510 1509 1508 1508 1508 1508 1509 1510 1510 1510 1510 1510 1509 1508 1508 1507
1513 1517 1521 1525 1528 1530 1531 1532 1533 1534 1534 1534 1533 1532 1530 1528 1526 1524 1522 1521 1519 1517 1515 1513 1511 1510 1510 1509 1509 1508 1508 1508 1507 1508 1508 1509 1510 1510 1510 1510 1509 1509 1508 1508
1510 1514 1518 1522 1525 1527 1528 1529 1530 1531 1531 1531 1531 1529 1528 1526 1525 1523 1521 1519 1517 1515 1513 1511 1509 1508 1507 1507 1507 1507 1507 1507 1507 1507 1507 1508 1509 1510 1510 1510 1510 1509 1509 1508
1507 1511 1515 1518 1521 1524 1525 1526 1527 1528 1529 1529 1528 1527 1526 1524 1523 1521 1519 1517 1515 1513 1510 1508 1506 1505 1504 1504 1505 1506 1506 1506 1506 1506 1507 1508 1508 1509 1510 1510 1509 1509 1508 1508
1504 1508 1512 1515 1518 1520 1521 1523 1524 1525 1525 1526 1525 1525 1523 1522 1521 1520 1517 1515 1513 1510 1508 1505 1502 1501 1501 1501 1502 1503 1504 1505 1505 1505 1506 1506 1507 1508 1509 1509 1509 1508 1507 1507
1501 1505 1508 1511 1513 1515 1517 1519 1520 1521 1521 1522 1522 1522 1521 1519 1518 1517 1515 1513 1511 1508 1505 1502 1500 1498 1498 1498 1499 1501 1502 1503 1504 1504 1504 1505 1506 1506 1507 1507 1507 1507 1506 1506
1498 1501 1504 1506 1509 1511 1513 1515 1516 1516 1517 1517 1518 1518 1517 1516 1515 1514 1512 1511 1509 1506 1503 1500 1497 1496 1495 1496 1497 1498 1500 1501 1502 1502 1502 1503 1504 1504 1505 1506 1506 1506 1505 1505
1495 1498 1500 1503 1504 1506 1508 1510 1511 1512 1512 1513 1513 1513 1513 1512 1511 1510 1509 1508 1506 1504 1501 1498 1496 1494 1493 1493 1494 1495 1497 1498 1499 1500 1500 1500 1501 1502 1503 1504 1504 1504 1504 1504